Terminal Aerodrome Forecast
Issued by NWS Mt. Holly, NJ

Home | Current Version | Previous Version | Text Only | Print | Product List | Glossary On
Versions: 1 2 3 4 5 6 7 8 9 10 11 12 13 14 15 16 17 18 19 20 21 22 23 24 25 26 27 28 29 30 31 32 33 34 35 36 37 38
000
FTUS41 KPHI 221142
TAFABE
TAF
KABE 221142Z 2212/2312 00000KT 1/2SM FG VV002
      TEMPO 2212/2215 1/4SM FG
     FM221600 06003KT 2SM BR OVC004
     FM222100 06008KT 1SM -DZ BR OVC002
     FM230400 07015G25KT 1/2SM FG OVC003
     FM231000 06015G25KT 4SM -RA BR OVC007=

USA.gov is the U.S. government's official web portal to all federal, state and local government web resources and services.